When you browse on this site, cookies collect data to enhance your experience and personalize the content and advertising you see.
Visit our Privacy Policy to learn more. By continuing to use the site, you agree to this use of cookies and data.
  • în România
  • Lista ţărilor
  • Pe 7 zile
  • Temperatura apei
  • Hartă satelitară
  • Meteo pe hartă
  • Widget-uri
  • user-avatar
    Intrare

    Meteo pe oră la Lipno

    Astăzi, 25 Mai, Sâmbătă

    Timp Temperatura Precipitaţii Vânt Presiune Umiditate
    00:00 +12°C° 0 mm 2 m/s 750 mmHg 71%
    01:00 +12°C° 0 mm 2 m/s 750 mmHg 73%
    02:00 +12°C° 0 mm 2 m/s 750 mmHg 74%
    03:00 +12°C° 0 mm 2 m/s 750 mmHg 74%
    04:00 +12°C° 0 mm 2 m/s 750 mmHg 75%
    05:00 +13°C° 0 mm 2 m/s 750 mmHg 73%
    06:00 +14°C° 0 mm 3 m/s 750 mmHg 72%
    07:00 +16°C° 0 mm 3 m/s 750 mmHg 69%
    08:00 +17°C° 0 mm 3 m/s 750 mmHg 67%
    09:00 +19°C° 0 mm 4 m/s 750 mmHg 66%
    10:00 +20°C° 0 mm 4 m/s 750 mmHg 64%
    11:00 +20°C° 0 mm 4 m/s 750 mmHg 62%
    12:00 +20°C° 0 mm 5 m/s 750 mmHg 61%
    13:00 +21°C° 0 mm 6 m/s 750 mmHg 59%
    14:00 +20°C° 0 mm 5 m/s 750 mmHg 60%
    15:00 +19°C° 0 mm 5 m/s 750 mmHg 62%
    16:00 +19°C° 0 mm 5 m/s 750 mmHg 63%
    17:00 +17°C° 0 mm 4 m/s 750 mmHg 68%
    18:00 +15°C° 0 mm 4 m/s 750 mmHg 73%
    19:00 +14°C° 0 mm 3 m/s 750 mmHg 77%
    20:00 +12°C° 0 mm 3 m/s 751 mmHg 81%
    21:00 +11°C° 0 mm 3 m/s 751 mmHg 84%
    22:00 +10°C° 0 mm 3 m/s 752 mmHg 88%
    23:00 +9°C° 0 mm 2 m/s 752 mmHg 89%

    Mâine, 26 Mai, Duminică

    Timp Temperatura Precipitaţii Vânt Presiune Umiditate
    00:00 +8°C° 0 mm 2 m/s 752 mmHg 91%
    01:00 +8°C° 0 mm 2 m/s 752 mmHg 92%
    02:00 +7°C° 0 mm 2 m/s 751 mmHg 93%
    03:00 +7°C° 0 mm 2 m/s 751 mmHg 94%
    04:00 +7°C° 0 mm 3 m/s 751 mmHg 95%
    05:00 +9°C° 0 mm 3 m/s 751 mmHg 89%
    06:00 +10°C° 0 mm 4 m/s 751 mmHg 83%
    07:00 +12°C° 0 mm 4 m/s 751 mmHg 78%
    08:00 +12°C° 0 mm 4 m/s 751 mmHg 76%
    09:00 +13°C° 0 mm 5 m/s 751 mmHg 75%
    10:00 +13°C° 0 mm 5 m/s 751 mmHg 73%
    11:00 +14°C° 0 mm 5 m/s 750 mmHg 70%
    12:00 +16°C° 0 mm 5 m/s 750 mmHg 67%
    13:00 +17°C° 0 mm 5 m/s 750 mmHg 64%
    14:00 +17°C° 0 mm 5 m/s 750 mmHg 64%
    15:00 +19°C° 0 mm 5 m/s 749 mmHg 64%
    16:00 +19°C° 0 mm 5 m/s 749 mmHg 64%
    17:00 +18°C° 0 mm 4 m/s 749 mmHg 68%
    18:00 +17°C° 0 mm 4 m/s 748 mmHg 72%
    19:00 +17°C° 0 mm 3 m/s 748 mmHg 76%
    20:00 +16°C° 0 mm 3 m/s 748 mmHg 77%
    21:00 +14°C° 0 mm 3 m/s 748 mmHg 79%
    22:00 +14°C° 0 mm 3 m/s 749 mmHg 80%
    23:00 +13°C° 0 mm 3 m/s 749 mmHg 84%

    Poimâine, 27 Mai, Luni

    Timp Temperatura Precipitaţii Vânt Presiune Umiditate
    00:00 +12°C° 0 mm 3 m/s 748 mmHg 89%
    01:00 +12°C° 0 mm 3 m/s 748 mmHg 93%
    02:00 +12°C° 0 mm 3 m/s 748 mmHg 93%
    03:00 +11°C° 0 mm 3 m/s 748 mmHg 94%
    04:00 +11°C° 0 mm 3 m/s 748 mmHg 94%
    05:00 +13°C° 0 mm 4 m/s 748 mmHg 87%
    06:00 +15°C° 0 mm 5 m/s 747 mmHg 79%
    07:00 +17°C° 0 mm 6 m/s 747 mmHg 72%
    08:00 +20°C° 0 mm 6 m/s 747 mmHg 69%
    09:00 +21°C° 0 mm 7 m/s 747 mmHg 66%
    10:00 +22°C° 0 mm 7 m/s 747 mmHg 62%
    11:00 +22°C° 0.7 mm 7 m/s 747 mmHg 65%
    12:00 +22°C° 0.7 mm 7 m/s 747 mmHg 67%
    13:00 +23°C° 0.7 mm 7 m/s 747 mmHg 69%
    14:00 +22°C° 0.9 mm 6 m/s 747 mmHg 72%
    15:00 +22°C° 0.9 mm 6 m/s 747 mmHg 74%
    16:00 +21°C° 0.9 mm 5 m/s 747 mmHg 77%
    17:00 +20°C° 0.5 mm 4 m/s 747 mmHg 81%
    18:00 +19°C° 0.5 mm 3 m/s 747 mmHg 85%
    19:00 +18°C° 0.5 mm 2 m/s 748 mmHg 89%
    20:00 +17°C° 0.1 mm 2 m/s 748 mmHg 90%
    21:00 +16°C° 0.1 mm 2 m/s 748 mmHg 92%
    22:00 +15°C° 0.1 mm 2 m/s 748 mmHg 94%
    23:00 +14°C° 0 mm 2 m/s 748 mmHg 95%

    28 Mai, Marţi

    Timp Temperatura Precipitaţii Vânt Presiune Umiditate
    00:00 +14°C° 0 mm 2 m/s 748 mmHg 95%
    01:00 +12°C° 0 mm 3 m/s 748 mmHg 95%
    02:00 +12°C° 0 mm 3 m/s 748 mmHg 95%
    03:00 +12°C° 0 mm 3 m/s 748 mmHg 95%
    04:00 +12°C° 0 mm 3 m/s 747 mmHg 95%
    05:00 +12°C° 1 mm 3 m/s 747 mmHg 95%
    06:00 +13°C° 1 mm 3 m/s 747 mmHg 94%
    07:00 +13°C° 1 mm 4 m/s 747 mmHg 94%
    08:00 +13°C° 2.1 mm 4 m/s 747 mmHg 94%
    09:00 +13°C° 2.1 mm 4 m/s 746 mmHg 95%
    10:00 +13°C° 2.1 mm 4 m/s 746 mmHg 95%
    11:00 +13°C° 0.5 mm 5 m/s 746 mmHg 95%
    12:00 +13°C° 0.5 mm 5 m/s 745 mmHg 94%
    13:00 +13°C° 0.5 mm 5 m/s 745 mmHg 94%
    14:00 +13°C° 0.1 mm 5 m/s 745 mmHg 93%
    15:00 +13°C° 0.1 mm 5 m/s 745 mmHg 93%
    16:00 +13°C° 0.1 mm 5 m/s 744 mmHg 92%
    17:00 +13°C° 0.3 mm 5 m/s 744 mmHg 93%
    18:00 +13°C° 0.3 mm 5 m/s 744 mmHg 94%
    19:00 +13°C° 0.3 mm 5 m/s 744 mmHg 94%
    20:00 +13°C° 0.5 mm 5 m/s 745 mmHg 95%
    21:00 +12°C° 0.5 mm 5 m/s 745 mmHg 96%
    22:00 +12°C° 0.5 mm 5 m/s 745 mmHg 96%
    23:00 +11°C° 0.6 mm 6 m/s 745 mmHg 96%

    29 Mai, Miercuri

    Timp Temperatura Precipitaţii Vânt Presiune Umiditate
    00:00 +10°C° 0.6 mm 6 m/s 745 mmHg 95%
    01:00 +10°C° 0.6 mm 7 m/s 745 mmHg 95%
    02:00 +9°C° 0.2 mm 7 m/s 746 mmHg 94%
    03:00 +9°C° 0.2 mm 7 m/s 746 mmHg 94%
    04:00 +9°C° 0.2 mm 7 m/s 746 mmHg 93%
    05:00 +9°C° 0.7 mm 7 m/s 746 mmHg 93%
    06:00 +8°C° 0.7 mm 7 m/s 747 mmHg 93%
    07:00 +8°C° 0.7 mm 7 m/s 747 mmHg 93%
    08:00 +8°C° 1.6 mm 6 m/s 748 mmHg 92%
    09:00 +8°C° 1.6 mm 6 m/s 748 mmHg 92%
    10:00 +9°C° 1.6 mm 6 m/s 749 mmHg 91%
    11:00 +9°C° 0.7 mm 6 m/s 750 mmHg 89%
    12:00 +10°C° 0.7 mm 6 m/s 750 mmHg 86%
    13:00 +11°C° 0.7 mm 6 m/s 751 mmHg 84%
    14:00 +13°C° 0.1 mm 6 m/s 751 mmHg 79%
    15:00 +13°C° 0.1 mm 6 m/s 752 mmHg 74%
    16:00 +14°C° 0.1 mm 5 m/s 752 mmHg 69%
    17:00 +13°C° 0 mm 5 m/s 753 mmHg 71%
    18:00 +12°C° 0 mm 4 m/s 753 mmHg 74%
    19:00 +11°C° 0 mm 3 m/s 754 mmHg 76%
    20:00 +10°C° 0 mm 3 m/s 754 mmHg 79%
    21:00 +9°C° 0 mm 3 m/s 755 mmHg 82%
    22:00 +7°C° 0 mm 2 m/s 755 mmHg 85%
    23:00 +7°C° 0 mm 3 m/s 756 mmHg 84%

    30 Mai, Joi

    Timp Temperatura Precipitaţii Vânt Presiune Umiditate
    00:00 +7°C° 0 mm 3 m/s 756 mmHg 84%
    01:00 +5°C° 0 mm 3 m/s 756 mmHg 83%
    02:00 +5°C° 0 mm 3 m/s 757 mmHg 83%
    03:00 +5°C° 0 mm 3 m/s 757 mmHg 83%
    04:00 +5°C° 0 mm 3 m/s 757 mmHg 82%
    05:00 +7°C° 0 mm 3 m/s 758 mmHg 79%
    06:00 +8°C° 0 mm 3 m/s 758 mmHg 76%
    07:00 +9°C° 0 mm 3 m/s 758 mmHg 73%
    08:00 +11°C° 0 mm 3 m/s 758 mmHg 67%
    09:00 +13°C° 0 mm 2 m/s 759 mmHg 60%
    10:00 +15°C° 0 mm 2 m/s 759 mmHg 54%
    11:00 +16°C° 0 mm 2 m/s 759 mmHg 51%
    12:00 +16°C° 0 mm 2 m/s 758 mmHg 47%
    13:00 +17°C° 0 mm 2 m/s 758 mmHg 44%
    14:00 +18°C° 0 mm 1 m/s 758 mmHg 44%
    15:00 +19°C° 0 mm 1 m/s 758 mmHg 43%
    16:00 +17°C° 0 mm 0 m/s 758 mmHg 43%
    17:00 +18°C° 0 mm 1 m/s 757 mmHg 49%
    18:00 +15°C° 0 mm 1 m/s 757 mmHg 56%
    19:00 +14°C° 0 mm 1 m/s 757 mmHg 62%
    20:00 +13°C° 0 mm 1 m/s 757 mmHg 64%
    21:00 +12°C° 0 mm 2 m/s 757 mmHg 65%
    22:00 +10°C° 0 mm 2 m/s 757 mmHg 67%
    23:00 +9°C° 0 mm 2 m/s 756 mmHg 68%
    Arată mai mult